Find Starlink 32439

NORAD ID: 61665 Int'l Des: 2024-193 Owner: SPXS Country: US Constellation: starlink operational
LEOCIRCULAR

当前视图

正在加载3D地球...

About Starlink 32439

Starlink 32439 (NORAD 61665) is a starlink constellation satellite (v2 mini) launched Oct 26, 2024 by SPXS of US. It operates in LEO, CIRCULAR orbit with a mass of 730.00 kg.

关于 Starlink 32439

正在加载描述...

即将过境

Passes for default location (London). Set your location on the main map for personalized predictions.

高度历史

Loading altitude history...

两行轨道根数

1 61665U 24193E 26169.74230664 -.00000175 00000-0 62026-5 0 9994
2 61665 53.1601 341.9540 0001183 86.8622 273.2514 15.30200148 91999
Epoch: Jun 18, 2026 • Age: 10 hours

当前状态

高度 481.0 km
速度 7.62 km/s
星下点 -19.73°S, 153.61°W
发射日期 Oct 26, 2024
运行时间 1.6 years
类型 internet

技术详情

分类 Payload
质量 730.00 kg
干质量 700.00 kg
总质量 730.00 kg
长度 0.30 m
直径 4.10 m
跨度 29.00 m
形状 Box + pan
制造商 SPXS
平台类型 Starlink V2M
阶段状态 In Orbit
所有者/国家 SPXS/US

Most Searched